JBU2518 KJFK-KSYR

Flight info

Callsign JBU2518
Flight time N/A
Altitude 22000
Route NEION CORDS CFB CORTA
Aircraft A320/M-VGDW/C

Departure

Time N/A
Airport John F. Kennedy International Airport (KJFK)

Arrival

Time 2026-04-23 01:07
Airport Syracuse Hancock International Airport (KSYR)
Time Latitude Longitude Altitude Speed Heading
2026-04-23 00:57 43.07795 -75.87810 7276 ft 227 kts
2026-04-23 00:57 43.09344 -75.87298 7029 ft 231 kts 12°
2026-04-23 00:57 43.10860 -75.86542 6782 ft 232 kts 16°
2026-04-23 00:58 43.12361 -75.85708 6473 ft 234 kts 17°
2026-04-23 00:58 43.13871 -75.84868 6140 ft 235 kts 17°
2026-04-23 00:58 43.15393 -75.84032 5788 ft 236 kts 17°
2026-04-23 00:58 43.16863 -75.82945 5416 ft 243 kts 39°
2026-04-23 00:59 43.17762 -75.80990 5170 ft 246 kts 72°
2026-04-23 00:59 43.17946 -75.78696 5073 ft 238 kts 87°
2026-04-23 00:59 43.17948 -75.76473 5069 ft 231 kts 89°
2026-04-23 00:59 43.17705 -75.74319 5064 ft 230 kts 112°
2026-04-23 01:00 43.16819 -75.72569 4990 ft 221 kts 141°
2026-04-23 01:00 43.15507 -75.71604 4828 ft 211 kts 169°
2026-04-23 01:00 43.14079 -75.71530 4631 ft 204 kts 195°
2026-04-23 01:00 43.12801 -75.72263 4451 ft 198 kts 220°
2026-04-23 01:01 43.11914 -75.73632 4255 ft 189 kts 254°
2026-04-23 01:01 43.11890 -75.75368 4115 ft 185 kts 282°
2026-04-23 01:01 43.11957 -75.77114 3933 ft 188 kts 270°
2026-04-23 01:01 43.11888 -75.78899 3753 ft 188 kts 270°
2026-04-23 01:02 43.11826 -75.80682 3577 ft 188 kts 270°
2026-04-23 01:02 43.11770 -75.82468 3386 ft 188 kts 270°
2026-04-23 01:02 43.11716 -75.84247 3190 ft 187 kts 270°
2026-04-23 01:02 43.11662 -75.86029 2981 ft 187 kts 270°
2026-04-23 01:03 43.11606 -75.87827 2775 ft 185 kts 270°
2026-04-23 01:03 43.11553 -75.89560 2607 ft 179 kts 271°
2026-04-23 01:03 43.11501 -75.91209 2422 ft 167 kts 271°
2026-04-23 01:03 43.11453 -75.92765 2275 ft 161 kts 271°
2026-04-23 01:04 43.11419 -75.94255 2152 ft 150 kts 272°
2026-04-23 01:04 43.11345 -75.95619 2042 ft 138 kts 269°
2026-04-23 01:04 43.11218 -75.98187 1852 ft 134 kts 271°
2026-04-23 01:05 43.11173 -75.99455 1738 ft 133 kts 272°
2026-04-23 01:05 43.11150 -76.00721 1595 ft 132 kts 273°
2026-04-23 01:05 43.11135 -76.01966 1444 ft 131 kts 271°
2026-04-23 01:05 43.11112 -76.03175 1239 ft 131 kts 271°
2026-04-23 01:06 43.11072 -76.04448 1045 ft 133 kts 269°
2026-04-23 01:06 43.11036 -76.05723 923 ft 132 kts 269°
2026-04-23 01:06 43.10993 -76.06997 732 ft 133 kts 270°
2026-04-23 01:06 43.10951 -76.08260 597 ft 132 kts 269°
2026-04-23 01:07 43.10920 -76.09516 414 ft 126 kts 270°
2026-04-23 01:07 43.10892 -76.10481 413 ft 69 kts 267°
2026-04-23 01:07 43.10881 -76.10841 417 ft 23 kts 275°
2026-04-23 01:07 43.10930 -76.11045 420 ft 24 kts 306°
2026-04-23 01:08 43.11002 -76.11099 415 ft 7 kts 104°
2026-04-23 01:08 43.10996 -76.11079 422 ft 7 kts 106°
2026-04-23 01:10 43.10995 -76.11022 423 ft 12 kts 86°
2026-04-23 01:10 43.11005 -76.10863 412 ft 19 kts 74°
2026-04-23 01:10 43.11107 -76.10822 417 ft 17 kts 354°
2026-04-23 01:11 43.11212 -76.10863 417 ft 7 kts 321°
2026-04-23 01:11 43.11214 -76.10928 420 ft 9 kts 258°
2026-04-23 01:11 43.11230 -76.11007 410 ft 10 kts 338°
2026-04-23 01:11 43.11248 -76.10990 416 ft 0 kts 56°